Find OneWeb SL0630

NORAD ID: 56072 Int'l Des: 2023-043 Owner: ONEWEBN Country: UK Constellation: oneweb operational
LEOCIRCULARPOLARONEWEB_TYPE

リアルタイム位置

3D地球を読み込み中...

OneWeb SL0630について

説明を読み込み中...

次回通過

Passes for default location (London). Set your location on the main map for personalized predictions.

高度履歴

Loading altitude history...

軌道要素

1 56072U 23043AC 26105.73118436 -.00000114 00000-0 -33614-3 0 9997
2 56072 87.8936 271.6563 0001979 91.1324 269.0033 13.15547287148211
Epoch: Apr 15, 2026 • Age: 15 hours

現在のステータス

高度 1205.3 km
速度 7.25 km/s
衛星直下点 33.41°N, 56.38°W
打ち上げ日 Mar 26, 2023
運用期間 3 years
タイプ internet

技術仕様

分類 Payload
質量 148.00 kg
乾燥質量 140.00 kg
総質量 148.00 kg
長さ 1.30 m
直径 1.00 m
スパン 5.00 m
形状 Trapezoid+2 pan
製造者 ONEWUS
バスタイプ ARROW
フェーズステータス In Orbit
所有者/国 ONEWEBN/UK

Most Searched